{"data":{"norad_id":61966,"intl_designator":"2024-210H","name":"STARLINK-32498","alt_names":[],"object_type":"PAYLOAD","status":"ACTIVE","operator":null,"country":"US","launch_date":"2024-11-14","launch_site_code":"AFETR","launch_vehicle":null,"mission":null,"orbit_class":"UNKNOWN","rcs_meters":null,"size_class":null,"mass_kg":null,"dimensions":null,"purposes":["comms"],"wikipedia_slug":null,"has_3d_model":false,"image_url":null,"decayed_at":null,"tle_current":{"epoch":"2026-09-21T08:27:03.770208Z","epoch_age_seconds":112008,"freshness":"FRESH","line1":"1 61966U 24210H   26264.35212697  .00010263  00000+0  38203-3 0  9992","line2":"2 61966  42.9980 140.1446 0002121 270.3745  89.6863 15.27574581105007","mean_motion":15.27574581,"eccentricity":0.0002121,"inclination_deg":42.998,"raan_deg":140.1446,"arg_perigee_deg":270.3745,"mean_anomaly_deg":89.6863,"bstar":0.00038203,"rev_number":10500,"period_min":94.267083120572,"perigee_km":481.61006151049,"apogee_km":484.5205835357,"semimajor_km":6861.2023225231,"source":"CELESTRAK","updated_at":"2026-09-22T09:00:49.459446Z"}}}